User: anonymous   Login
Location: Calvatone
(45.1167°N, 10.4333°E)
Time: 13:09:12
(UTC+00:00)
Language:

PCSat - Orbit

View from above orbital plane
View from above orbital plane
View from above satellite
View from above satellite

Ground track
Ground track

The orbit data is extracted from the following two-line orbital elements,

1 26931U 01043C   23338.52937240  .00000507  00000-0  22382-3 0  9992
2 26931  67.0503 116.9449 0005698 258.4015 101.6447 14.31060926157953
Epoch (UTC): 04 December 2023 12:42:17
Eccentricity: 0.0005698
inclination: 67.0503°
perigee height: 784 km
apogee height: 792 km
right ascension of ascending node: 116.9449°
argument of perigee: 258.4015°
revolutions per day: 14.31060926
mean anomaly at epoch: 101.6447°
orbit number at epoch: 15795

The dashed part of the orbit path shows where the satellite is in the earth's shadow,  

DLR